Previsão horária em Abadan

Hoje, 17 Abril, Sábado

Tempo Temperatura Precipitação Vento Pressão Humidade
00:00 +28°C° 0 mm 6 m/s 758 mmHg 17%
01:00 +27°C° 0 mm 6 m/s 757 mmHg 18%
02:00 +26°C° 0 mm 5 m/s 757 mmHg 20%
03:00 +26°C° 0 mm 5 m/s 757 mmHg 21%
04:00 +25°C° 0 mm 5 m/s 758 mmHg 22%
05:00 +25°C° 0 mm 5 m/s 758 mmHg 23%
06:00 +25°C° 0 mm 5 m/s 758 mmHg 24%
07:00 +27°C° 0 mm 6 m/s 758 mmHg 22%
08:00 +28°C° 0 mm 7 m/s 758 mmHg 19%
09:00 +31°C° 0 mm 8 m/s 759 mmHg 17%
10:00 +33°C° 0 mm 8 m/s 758 mmHg 14%
11:00 +35°C° 0 mm 8 m/s 758 mmHg 12%
12:00 +36°C° 0 mm 7 m/s 758 mmHg 10%
13:00 +38°C° 0 mm 7 m/s 757 mmHg 9%
14:00 +39°C° 0 mm 6 m/s 757 mmHg 8%
15:00 +39°C° 0 mm 6 m/s 756 mmHg 7%
16:00 +37°C° 0 mm 5 m/s 756 mmHg 8%
17:00 +37°C° 0 mm 4 m/s 756 mmHg 8%
18:00 +36°C° 0 mm 4 m/s 756 mmHg 9%
19:00 +35°C° 0 mm 3 m/s 757 mmHg 10%
20:00 +33°C° 0 mm 3 m/s 757 mmHg 11%
21:00 +31°C° 0 mm 3 m/s 757 mmHg 12%
22:00 +30°C° 0 mm 3 m/s 757 mmHg 13%
23:00 +29°C° 0 mm 3 m/s 757 mmHg 14%

Amanhã, 18 Abril, Domingo

Tempo Temperatura Precipitação Vento Pressão Humidade
00:00 +29°C° 0 mm 4 m/s 757 mmHg 15%
01:00 +28°C° 0 mm 4 m/s 757 mmHg 17%
02:00 +27°C° 0 mm 4 m/s 757 mmHg 19%
03:00 +27°C° 0 mm 4 m/s 757 mmHg 20%
04:00 +26°C° 0 mm 4 m/s 757 mmHg 21%
05:00 +26°C° 0 mm 4 m/s 758 mmHg 22%
06:00 +26°C° 0 mm 4 m/s 758 mmHg 23%
07:00 +28°C° 0 mm 5 m/s 758 mmHg 20%
08:00 +30°C° 0 mm 6 m/s 759 mmHg 18%
09:00 +34°C° 0 mm 7 m/s 759 mmHg 15%
10:00 +36°C° 0 mm 6 m/s 758 mmHg 13%
11:00 +39°C° 0 mm 6 m/s 758 mmHg 11%
12:00 +40°C° 0 mm 6 m/s 758 mmHg 9%
13:00 +41°C° 0 mm 6 m/s 757 mmHg 8%
14:00 +42°C° 0 mm 6 m/s 757 mmHg 7%
15:00 +42°C° 0 mm 6 m/s 756 mmHg 6%
16:00 +41°C° 0 mm 6 m/s 756 mmHg 7%
17:00 +40°C° 0 mm 6 m/s 756 mmHg 8%
18:00 +40°C° 0 mm 7 m/s 756 mmHg 8%
19:00 +39°C° 0 mm 6 m/s 756 mmHg 9%
20:00 +36°C° 0 mm 6 m/s 757 mmHg 10%
21:00 +35°C° 0 mm 6 m/s 757 mmHg 12%
22:00 +34°C° 0 mm 6 m/s 757 mmHg 13%
23:00 +33°C° 0 mm 5 m/s 757 mmHg 14%

Depois de amanhã, 19 Abril, Segunda-feira

Tempo Temperatura Precipitação Vento Pressão Humidade
00:00 +32°C° 0 mm 4 m/s 757 mmHg 15%
01:00 +32°C° 0 mm 5 m/s 757 mmHg 16%
02:00 +30°C° 0 mm 5 m/s 757 mmHg 17%
03:00 +29°C° 0 mm 5 m/s 756 mmHg 18%
04:00 +29°C° 0 mm 5 m/s 757 mmHg 18%
05:00 +29°C° 0 mm 5 m/s 757 mmHg 19%
06:00 +29°C° 0 mm 5 m/s 757 mmHg 20%
07:00 +32°C° 0 mm 7 m/s 757 mmHg 18%
08:00 +34°C° 0 mm 8 m/s 757 mmHg 15%
09:00 +38°C° 0 mm 10 m/s 757 mmHg 13%
10:00 +39°C° 0 mm 10 m/s 757 mmHg 12%
11:00 +42°C° 0 mm 10 m/s 756 mmHg 11%
12:00 +43°C° 0 mm 10 m/s 756 mmHg 9%
13:00 +44°C° 0 mm 9 m/s 755 mmHg 9%
14:00 +44°C° 0 mm 9 m/s 754 mmHg 8%
15:00 +45°C° 0 mm 8 m/s 754 mmHg 8%
16:00 +44°C° 0 mm 8 m/s 754 mmHg 8%
17:00 +43°C° 0 mm 7 m/s 754 mmHg 9%
18:00 +41°C° 0 mm 6 m/s 754 mmHg 10%
19:00 +40°C° 0 mm 6 m/s 754 mmHg 11%
20:00 +39°C° 0 mm 7 m/s 755 mmHg 13%
21:00 +36°C° 0 mm 7 m/s 755 mmHg 15%
22:00 +35°C° 0 mm 6 m/s 755 mmHg 16%
23:00 +35°C° 0 mm 5 m/s 755 mmHg 17%

20 Abril, Terça-feira

Tempo Temperatura Precipitação Vento Pressão Humidade
00:00 +34°C° 0 mm 4 m/s 754 mmHg 18%
01:00 +33°C° 0 mm 4 m/s 754 mmHg 19%
02:00 +32°C° 0 mm 4 m/s 754 mmHg 20%
03:00 +32°C° 0 mm 4 m/s 754 mmHg 21%
04:00 +30°C° 0 mm 4 m/s 754 mmHg 21%
05:00 +30°C° 0 mm 4 m/s 755 mmHg 22%
06:00 +30°C° 0 mm 3 m/s 755 mmHg 23%
07:00 +33°C° 0 mm 3 m/s 755 mmHg 20%
08:00 +35°C° 0 mm 3 m/s 755 mmHg 18%
09:00 +37°C° 0 mm 4 m/s 756 mmHg 16%
10:00 +38°C° 0 mm 3 m/s 755 mmHg 14%
11:00 +40°C° 0 mm 2 m/s 755 mmHg 13%
12:00 +41°C° 0 mm 2 m/s 755 mmHg 12%
13:00 +41°C° 0 mm 2 m/s 754 mmHg 11%
14:00 +42°C° 0 mm 1 m/s 754 mmHg 10%
15:00 +42°C° 0 mm 1 m/s 753 mmHg 9%
16:00 +41°C° 0 mm 2 m/s 753 mmHg 11%
17:00 +40°C° 0 mm 2 m/s 753 mmHg 12%
18:00 +39°C° 0 mm 2 m/s 753 mmHg 13%
19:00 +38°C° 0 mm 3 m/s 753 mmHg 15%
20:00 +36°C° 0 mm 3 m/s 754 mmHg 17%
21:00 +35°C° 0 mm 4 m/s 754 mmHg 20%
22:00 +34°C° 0 mm 4 m/s 754 mmHg 20%
23:00 +34°C° 0 mm 3 m/s 754 mmHg 21%

21 Abril, Quarta-feira

Tempo Temperatura Precipitação Vento Pressão Humidade
00:00 +33°C° 0 mm 3 m/s 754 mmHg 21%
01:00 +33°C° 0 mm 3 m/s 754 mmHg 21%
02:00 +33°C° 0 mm 3 m/s 754 mmHg 21%
03:00 +31°C° 0 mm 2 m/s 754 mmHg 21%
04:00 +31°C° 0 mm 2 m/s 754 mmHg 22%
05:00 +31°C° 0 mm 2 m/s 755 mmHg 23%
06:00 +31°C° 0 mm 2 m/s 755 mmHg 23%
07:00 +34°C° 0 mm 2 m/s 755 mmHg 21%
08:00 +36°C° 0 mm 2 m/s 756 mmHg 18%
09:00 +38°C° 0 mm 2 m/s 756 mmHg 15%
10:00 +40°C° 0 mm 2 m/s 756 mmHg 13%
11:00 +42°C° 0 mm 2 m/s 755 mmHg 11%
12:00 +44°C° 0 mm 1 m/s 755 mmHg 9%
13:00 +45°C° 0 mm 2 m/s 755 mmHg 8%
14:00 +46°C° 0 mm 2 m/s 754 mmHg 7%
15:00 +46°C° 0 mm 3 m/s 753 mmHg 7%
16:00 +44°C° 0 mm 3 m/s 754 mmHg 9%
17:00 +42°C° 0 mm 4 m/s 754 mmHg 12%
18:00 +40°C° 0 mm 4 m/s 754 mmHg 14%
19:00 +38°C° 0 mm 4 m/s 754 mmHg 16%
20:00 +37°C° 0 mm 4 m/s 755 mmHg 17%
21:00 +36°C° 0 mm 4 m/s 755 mmHg 19%
22:00 +35°C° 0 mm 4 m/s 755 mmHg 19%
23:00 +35°C° 0 mm 3 m/s 755 mmHg 18%

22 Abril, Quinta-feira

Tempo Temperatura Precipitação Vento Pressão Humidade
00:00 +35°C° 0 mm 3 m/s 755 mmHg 18%
01:00 +34°C° 0 mm 3 m/s 755 mmHg 21%
02:00 +33°C° 0 mm 3 m/s 755 mmHg 25%
03:00 +31°C° 0 mm 3 m/s 755 mmHg 28%
04:00 +30°C° 0 mm 3 m/s 755 mmHg 31%
05:00 +30°C° 0 mm 3 m/s 756 mmHg 34%
06:00 +29°C° 0 mm 3 m/s 756 mmHg 37%
07:00 +33°C° 0 mm 3 m/s 756 mmHg 30%
08:00 +36°C° 0 mm 2 m/s 756 mmHg 22%
09:00 +38°C° 0 mm 2 m/s 757 mmHg 15%
10:00 +40°C° 0 mm 1 m/s 756 mmHg 13%
11:00 +42°C° 0 mm 1 m/s 756 mmHg 11%
12:00 +44°C° 0 mm 1 m/s 756 mmHg 9%
13:00 +45°C° 0 mm 2 m/s 755 mmHg 9%
14:00 +46°C° 0 mm 2 m/s 755 mmHg 8%
15:00 +46°C° 0 mm 2 m/s 754 mmHg 8%
16:00 +45°C° 0 mm 3 m/s 754 mmHg 9%
17:00 +43°C° 0 mm 3 m/s 754 mmHg 11%
18:00 +40°C° 0 mm 3 m/s 754 mmHg 13%
19:00 +39°C° 0 mm 3 m/s 755 mmHg 14%
20:00 +38°C° 0 mm 3 m/s 755 mmHg 16%
21:00 +37°C° 0 mm 3 m/s 755 mmHg 17%
22:00 +36°C° 0 mm 3 m/s 755 mmHg 17%
23:00 +36°C° 0 mm 3 m/s 755 mmHg 16%
Mostrar mais

Necessitamos do seu Consentimento

A Meteoprog e os seus Fornecedores de Serviços podem armazenar e aceder a dados pessoais como cookies, identificadores do dispositivo ou outras tecnologias semelhantes existentes no seu dispositivo e processar estes dados para personalizar conteúdos e anúncios, assim como funcionalidades nas redes sociais e análise de tráfego.

  • Armazenar e/ou aceder a informações no seu dispositivo

    Os cookies, identificadores do dispositivo ou outras informações podem ser armazenados ou acedidos no seu dispositivo, para os fins acima indicados.

  • Anúncios e conteúdos personalizados, medição de anúncios e conteúdos, dados sobre o público-alvo e desenvolvimento de produtos

    Os anúncios e os conteúdos podem ser personalizados com base num perfil. Podem ser adicionados dados adicionais para uma maior personalização dos anúncios e dos conteúdos. A eficácia dos anúncios e dos conteúdos pode ser medida. Podem ser obtidas informações sobre o público que visualizou os anúncios e os conteúdos. Estes dados podem ser usados para desenvolver ou melhorar sistemas, softwares ou a experiência do utilizador.

Ao clicar em "Eu concordo”, permitirá o uso de cookies, identificadores do dispositivo e web beacons mencionados ou outras tecnologias semelhantes. As configurações do navegador do seu dispositivo podem ser alteradas.

Para certos fins, podem ser invocados interesses legítimos ao invés de consentimento. Pode ler mais informação sobre este assunto na nossa Política de Privacidade e Cookies.